GSAT0204 (GALILEO 8) (40545 NORAD) Tracking and Keplerian Element Data

This shows tracking and keplerian element data for the satellite.

Feedback or suggestion? Click here.




ElementValue
Catalog40545
NameGSAT0204 (GALILEO 8)
Epoch Orbit1962
Epoch Day158.61162999
Epoch Year2024
RAAN1.7692
Inclination56.9299
Eccentricity0.0001163
Argument of Perigee235.4033
Mean Anonmoly124.6212
Mean Motion1.7047558
Decay Rate-9.8E-07
L11 40545U 15017B 24158.61162999 -.00000098 00000+0 00000+0 0 9991
L22 40545 56.9299 1.7692 0001163 235.4033 124.6212 1.70475580 19629



Live tracking and technical data element details for GSAT0204 (GALILEO 8) (NORAD 40545). GSAT0204 (GALILEO 8) can be tracked NOW for your location showing map with azimuth and elevation plus other details from your city location.







IsCatalogInMostPopularTable: catalog: 40545, numindb: 669
Update: records affected: 1



GetName: 40545 GSAT0204 (GALILEO 8)

Hit Count: updated at: Tue, 18 Jun 2024 00:23:31 GMT